GW1546 Weather Reports


Display with metric or nautical units.
time (UTC)temp
F
wind
direction
speed
MPH
gust
MPH
rain 1hr
in
rain 24hr
in
rain mn
in
humidity
%
barometer
mb
20260902173028 93 114 0.0 2.0 0.00 0.00 0.00 61 991.5
20260902172444 93 44 0.0 1.0 0.00 0.00 0.00 59 991.5
20260902171817 92 316 2.0 3.0 0.00 0.00 0.00 62 991.5
20260902171206 90 16 0.0 1.0 0.00 0.00 0.00 67 991.5
20260902170647 88 12 1.0 1.0 0.00 0.00 0.00 69 991.8
20260902170024 89 335 1.0 2.0 0.00 0.00 0.00 74 991.8
20260902165424 91 298 2.0 3.0 0.00 0.00 0.00 62 992.2
20260902164207 87 225 1.0 1.0 0.00 0.00 0.00 79 992.2
20260902163612 87 233 0.0 1.0 0.00 0.00 0.00 78 992.2
20260902163010 87 50 0.0 1.0 0.00 0.00 0.00 76 992.2
20260902162424 89 154 1.0 1.0 0.00 0.00 0.00 76 992.5
20260902161822 90 230 0.0 1.0 0.00 0.00 0.00 72 992.8
20260902161215 91 185 3.0 3.0 0.00 0.00 0.00 71 992.5
20260902160043 95 58 1.0 1.0 0.00 0.00 0.00 59 992.2
20260902155438 95 53 0.0 1.0 0.00 0.00 0.00 62 992.5
20260902154817 93 50 0.0 1.0 0.00 0.00 0.00 68 992.5
20260902154230 92 45 0.0 0.0 0.00 0.00 0.00 73 992.2
20260902153033 89 46 0.0 1.0 0.00 0.00 0.00 78 992.2
20260902152412 88 54 0.0 1.0 0.00 0.00 0.00 80 992.5
20260902151838 87 37 0.0 1.0 0.00 0.00 0.00 79 992.5
20260902150029 87 78 0.0 1.0 0.00 0.00 0.00 78 992.8
20260902145445 86 54 0.0 0.0 0.00 0.00 0.00 79 992.8
20260902144233 83 57 0.0 1.0 0.00 0.00 0.00 83 992.5
20260902143627 82 298 0.0 1.0 0.00 0.00 0.00 83 992.5
20260902143043 82 5 0.0 1.0 0.00 0.00 0.00 84 992.5
20260902142438 80 28 0.0 1.0 0.00 0.00 0.00 88 992.5
20260902141822 79 43 1.0 2.0 0.00 0.00 0.00 89 992.5
20260902141225 78 20 0.0 1.0 0.00 0.00 0.00 91 992.5
20260902140643 77 22 0.0 1.0 0.00 0.00 0.00 92 992.5
20260902140014 76 41 1.0 2.0 0.00 0.00 0.00 93 992.5
20260902135430 76 35 0.0 2.0 0.00 0.00 0.00 94 992.5
20260902134845 75 320 1.0 3.0 0.00 0.00 0.00 94 992.5
20260902134207 75 333 0.0 2.0 0.00 0.00 0.00 95 992.5
20260902133612 74 31 1.0 1.0 0.00 0.00 0.00 96 992.5
20260902133016 74 27 2.0 3.0 0.00 0.00 0.00 96 992.2
20260902132406 74 49 0.0 3.0 0.00 0.00 0.00 97 992.5
20260902131229 73 60 1.0 2.0 0.00 0.00 0.00 97 992.5
20260902130010 72 60 1.0 3.0 0.00 0.00 0.00 98 992.5
20260902125429 72 68 1.0 2.0 0.00 0.00 0.00 99 992.5
20260902123634 71 60 0.0 3.0 0.00 0.00 0.00 99 992.8
20260902122449 71 210 0.0 2.0 0.00 0.00 0.00 99 992.5
20260902121822 71 54 1.0 2.0 0.00 0.00 0.00 99 992.8
20260902121239 70 83 2.0 3.0 0.00 0.00 0.00 99 992.8
20260902120627 70 52 2.0 3.0 0.00 0.00 0.00 99 992.8
20260902120044 70 191 1.0 1.0 0.00 0.00 0.00 99 992.8
20260902115429 69 164 1.0 2.0 0.00 0.00 0.00 99 992.5
20260902114825 69 189 1.0 2.0 0.00 0.00 0.00 99 992.5
20260902114231 69 169 1.0 3.0 0.00 0.00 0.00 99 992.8
20260902113642 69 209 2.0 2.0 0.00 0.00 0.00 99 992.5
20260902113050 69 190 1.0 2.0 0.00 0.00 0.00 99 992.5
20260902112431 69 177 1.0 2.0 0.00 0.00 0.00 99 992.5
20260902111830 69 207 2.0 2.0 0.00 0.00 0.00 99 992.5
20260902111235 69 188 1.0 3.0 0.00 0.00 0.00 99 992.8
20260902110637 69 179 2.0 2.0 0.00 0.00 0.00 99 992.5
20260902110025 69 195 1.0 3.0 0.00 0.00 0.00 99 992.5
20260902105423 70 118 1.0 2.0 0.00 0.00 0.00 99 992.2
20260902104809 70 192 2.0 2.0 0.00 0.00 0.00 99 992.2
20260902103049 69 267 0.0 2.0 0.00 0.00 0.00 99 992.2
20260902102410 69 184 2.0 2.0 0.00 0.00 0.00 99 992.2
20260902101226 69 217 1.0 2.0 0.00 0.00 0.00 99 992.2
20260902100647 69 151 1.0 2.0 0.00 0.00 0.00 99 992.5
20260902100047 69 196 2.0 3.0 0.00 0.00 0.00 99 992.2
20260902095431 69 185 2.0 2.0 0.00 0.00 0.00 99 992.2
20260902094845 69 194 1.0 3.0 0.00 0.00 0.00 99 992.2
20260902094218 69 175 1.0 2.0 0.00 0.00 0.00 99 992.2
20260902093642 69 200 2.0 2.0 0.00 0.00 0.00 99 992.2
20260902093025 69 164 2.0 2.0 0.00 0.00 0.00 99 992.2
20260902092418 69 201 1.0 2.0 0.00 0.00 0.00 99 991.8
20260902091820 69 184 2.0 2.0 0.00 0.00 0.00 99 991.8
20260902091216 69 171 2.0 2.0 0.00 0.00 0.00 99 991.8
20260902090613 69 200 2.0 2.0 0.00 0.00 0.00 99 991.8
20260902090043 70 186 2.0 2.0 0.00 0.00 0.00 99 991.8
20260902085434 69 185 2.0 3.0 0.00 0.00 0.00 99 991.8
20260902084839 70 190 2.0 2.0 0.00 0.00 0.00 99 991.8
20260902084212 70 182 1.0 1.0 0.00 0.00 0.00 99 991.8
20260902083624 70 62 0.0 0.0 0.00 0.00 0.00 99 991.8
20260902083037 70 210 0.0 2.0 0.00 0.00 0.00 99 991.8
20260902082429 70 186 1.0 1.0 0.00 0.00 0.00 99 991.5
20260902081822 69 192 1.0 2.0 0.00 0.00 0.00 99 991.5
20260902080610 70 177 1.0 3.0 0.00 0.00 0.00 99 991.8
20260902080014 70 186 2.0 2.0 0.00 0.00 0.00 99 991.8
20260902074229 70 191 2.0 2.0 0.00 0.00 0.00 99 991.8
20260902073616 70 197 1.0 2.0 0.00 0.00 0.00 99 991.8
20260902073027 70 173 1.0 2.0 0.00 0.00 0.00 99 992.2
20260902072443 70 176 2.0 2.0 0.00 0.00 0.00 99 991.8
20260902071828 70 193 2.0 2.0 0.00 0.00 0.00 99 991.8
20260902071230 70 190 1.0 2.0 0.00 0.00 0.00 99 991.8
20260902070644 70 184 1.0 2.0 0.00 0.00 0.00 99 991.8
20260902070017 71 205 2.0 2.0 0.00 0.00 0.00 99 991.8
20260902065448 71 143 0.0 0.0 0.00 0.00 0.00 99 991.5
20260902064838 70 183 1.0 2.0 0.00 0.00 0.00 99 991.8
20260902064248 70 181 1.0 2.0 0.00 0.00 0.00 99 991.8
20260902063632 70 186 1.0 2.0 0.00 0.00 0.00 99 991.8
20260902063027 70 200 2.0 2.0 0.00 0.00 0.00 99 991.8
20260902062406 71 213 1.0 1.0 0.00 0.00 0.00 99 991.8
20260902061837 71 187 1.0 2.0 0.00 0.00 0.00 99 991.8
20260902061209 71 193 1.0 2.0 0.00 0.00 0.00 99 991.8
20260902060040 71 181 1.0 2.0 0.00 0.00 0.00 99 991.5
20260902055429 71 205 1.0 2.0 0.00 0.00 0.00 99 991.8
20260902054236 71 176 0.0 3.0 0.00 0.00 0.00 99 991.1
20260902053613 71 167 2.0 3.0 0.00 0.00 0.00 99 991.5
20260902053036 71 186 1.0 2.0 0.00 0.00 0.00 99 991.5
20260902051834 71 170 2.0 2.0 0.00 0.00 0.00 99 991.5
20260902051227 72 191 1.0 2.0 0.00 0.00 0.00 99 991.8
20260902050618 72 149 1.0 1.0 0.00 0.00 0.00 99 991.5
20260902050045 72 191 2.0 2.0 0.00 0.00 0.00 99 991.1
20260902045448 72 174 1.0 2.0 0.00 0.00 0.00 99 991.1
20260902044823 72 177 2.0 3.0 0.00 0.00 0.00 99 991.1
20260902044213 72 202 2.0 2.0 0.00 0.00 0.00 99 991.1
20260902043043 72 90 0.0 2.0 0.00 0.00 0.00 99 991.1
20260902042435 72 171 2.0 2.0 0.00 0.00 0.00 99 991.1
20260902041818 72 204 1.0 2.0 0.00 0.00 0.00 99 991.1
20260902041251 72 190 1.0 1.0 0.00 0.00 0.00 99 991.1
20260902040647 72 202 1.0 2.0 0.00 0.00 0.00 99 990.8
20260902040038 72 172 2.0 2.0 0.00 0.00 0.00 99 991.1
20260902035430 72 173 1.0 3.0 0.00 0.00 0.00 99 991.1
20260902034242 72 192 2.0 2.0 0.00 0.00 0.00 99 991.1
20260902033647 73 171 1.0 2.0 0.00 0.00 0.00 99 991.1
20260902033012 72 175 2.0 2.0 0.00 0.00 0.00 99 991.1
20260902032448 73 191 2.0 2.0 0.00 0.00 0.00 99 991.1
20260902031839 73 182 2.0 3.0 0.00 0.00 0.00 99 991.1
20260902031230 73 170 1.0 2.0 0.00 0.00 0.00 99 991.1
20260902030631 73 167 1.0 1.0 0.00 0.00 0.00 99 991.1
20260902030014 73 168 2.0 3.0 0.00 0.00 0.00 99 991.1
20260902024214 73 155 2.0 3.0 0.00 0.00 0.00 99 991.1
20260902023023 73 192 2.0 2.0 0.00 0.00 0.00 99 991.1
20260902021816 73 170 1.0 2.0 0.00 0.00 0.00 99 991.1
20260902021246 74 91 0.0 0.0 0.00 0.00 0.00 99 991.1
20260902020623 74 62 0.0 0.0 0.00 0.00 0.00 99 990.8
20260902020023 74 185 0.0 0.0 0.00 0.00 0.00 99 991.1
20260902015432 74 180 0.0 1.0 0.00 0.00 0.00 99 991.1
20260902014811 74 179 0.0 0.0 0.00 0.00 0.00 99 990.8
20260902014231 74 177 0.0 0.0 0.00 0.00 0.00 99 990.8
20260902013647 74 177 0.0 0.0 0.00 0.00 0.00 99 990.8
20260902013044 74 175 1.0 2.0 0.00 0.00 0.00 99 990.8
20260902012426 74 201 0.0 0.0 0.00 0.00 0.00 99 990.8
20260902011824 75 201 0.0 1.0 0.00 0.00 0.00 99 990.8
20260902011249 75 201 0.0 0.0 0.00 0.00 0.00 99 990.5
20260902010627 75 175 0.0 1.0 0.00 0.00 0.00 99 990.5
20260902004807 76 177 0.0 0.0 0.00 0.00 0.00 99 990.5
20260902004231 76 177 0.0 0.0 0.00 0.00 0.00 99 990.5
20260902003648 76 177 0.0 1.0 0.00 0.00 0.00 99 990.5
20260902003026 76 178 0.0 0.0 0.00 0.00 0.00 99 990.5
20260902001832 76 178 1.0 1.0 0.00 0.00 0.00 99 990.1
20260902001250 77 192 0.0 0.0 0.00 0.00 0.00 98 990.1
20260902000646 77 192 0.0 0.0 0.00 0.00 0.00 98 989.8
20260902000008 77 223 0.0 1.0 0.00 0.00 0.00 98 989.8
20260901235425 77 196 0.0 1.0 0.00 0.00 0.00 97 989.8
20260901234817 78 261 0.0 0.0 0.00 0.00 0.00 96 989.8
20260901234248 78 280 0.0 1.0 0.00 0.00 0.00 96 989.8
20260901233618 78 178 0.0 1.0 0.00 0.00 0.00 95 989.5
20260901233023 78 239 0.0 2.0 0.00 0.00 0.00 95 989.5
20260901232439 78 218 0.0 1.0 0.00 0.00 0.00 95 989.8
20260901231820 79 189 0.0 1.0 0.00 0.00 0.00 94 989.8
20260901231211 79 199 1.0 2.0 0.00 0.00 0.00 94 989.8
20260901230012 80 181 0.0 1.0 0.00 0.00 0.00 92 989.8
20260901224843 81 233 0.0 0.0 0.00 0.00 0.00 89 989.8
20260901224227 82 218 0.0 0.0 0.00 0.00 0.00 88 990.1
20260901223610 82 234 0.0 1.0 0.00 0.00 0.00 88 989.8
20260901223026 82 245 1.0 1.0 0.00 0.00 0.00 85 989.8
20260901222408 82 234 1.0 2.0 0.00 0.00 0.00 82 989.8
20260901221818 84 225 1.0 2.0 0.00 0.00 0.00 81 989.8
20260901221208 86 225 1.0 2.0 0.00 0.00 0.00 77 990.1
20260901220050 88 263 0.0 2.0 0.00 0.00 0.00 74 990.1
20260901215424 88 292 1.0 1.0 0.00 0.00 0.00 76 990.1
20260901214808 89 238 1.0 1.0 0.00 0.00 0.00 72 990.1
20260901214217 89 251 0.0 1.0 0.00 0.00 0.00 73 990.1
20260901213621 89 250 1.0 1.0 0.00 0.00 0.00 71 990.1
20260901213041 90 250 1.0 1.0 0.00 0.00 0.00 72 990.1
20260901212422 89 251 1.0 1.0 0.00 0.00 0.00 71 990.1
20260901211846 89 253 0.0 1.0 0.00 0.00 0.00 70 990.1
20260901211230 88 226 1.0 2.0 0.00 0.00 0.00 71 990.1
20260901210641 87 229 0.0 3.0 0.00 0.00 0.00 74 990.1
20260901210006 89 243 1.0 2.0 0.00 0.00 0.00 72 990.1
20260901205447 89 238 1.0 2.0 0.00 0.00 0.00 74 990.1
20260901204809 90 230 1.0 1.0 0.00 0.00 0.00 72 990.1
20260901204240 90 232 1.0 2.0 0.00 0.00 0.00 71 990.5
20260901203613 90 250 1.0 1.0 0.00 0.00 0.00 71 990.5
20260901203012 88 283 1.0 1.0 0.00 0.00 0.00 71 990.8
20260901202421 87 312 1.0 2.0 0.00 0.00 0.00 75 990.5
20260901201234 90 321 2.0 2.0 0.00 0.00 0.00 73 990.8
20260901200609 90 256 1.0 1.0 0.00 0.00 0.00 71 990.8
20260901200012 91 302 2.0 2.0 0.00 0.00 0.00 70 990.8
20260901195425 91 265 1.0 1.0 0.00 0.00 0.00 67 990.8
20260901194829 92 293 0.0 1.0 0.00 0.00 0.00 71 990.8
20260901194241 93 283 1.0 2.0 0.00 0.00 0.00 62 990.8
20260901193608 94 240 1.0 2.0 0.00 0.00 0.00 59 990.5
20260901193026 94 276 1.0 1.0 0.00 0.00 0.00 62 990.8
20260901192409 94 286 2.0 2.0 0.00 0.00 0.00 62 990.8
20260901191832 92 277 0.0 1.0 0.00 0.00 0.00 63 990.8
20260901191242 92 272 3.0 4.0 0.00 0.00 0.00 62 990.5
20260901190629 93 239 2.0 3.0 0.00 0.00 0.00 61 990.8
20260901190017 92 242 1.0 2.0 0.00 0.00 0.00 61 990.8
20260901185410 92 147 1.0 3.0 0.00 0.00 0.00 63 991.1
20260901184216 89 225 1.0 2.0 0.00 0.00 0.00 74 991.5
20260901183627 86 8 0.0 1.0 0.00 0.00 0.00 81 991.5
20260901181814 90 323 0.0 2.0 0.00 0.00 0.00 67 991.8
20260901181235 89 186 1.0 2.0 0.00 0.00 0.00 71 991.5
20260901180639 89 220 3.0 3.0 0.00 0.00 0.00 75 991.5
20260901180039 90 208 2.0 3.0 0.00 0.00 0.00 65 991.8
20260901175425 90 218 2.0 3.0 0.00 0.00 0.00 69 991.8
20260901174239 90 253 1.0 3.0 0.00 0.00 0.00 68 991.8